Home   Weather   Abu Dhabi   Past weeks

Flag for United Arab Emirates Past Weather in Abu Dhabi, Abu Dhabi, United Arab Emirates — Yesterday and Last 2 Weeks

82 °F


Feels Like: 88 °F
Forecast: 83 / 89 °F
Wind: 2 mph from North

Location: Abu Dhabi Bateen Airport

Current Time: Oct 22, 2016 at 3:50:18 AM

Latest Report: Oct 22, 2016 at 3:00 AM

Visibility: 5 mi

Pressure: 29.83 "Hg

Humidity: 74%

Dew Point: 73 °F

Location of Abu DhabiLocation

Past Weather in Abu Dhabi — Graph


Abu Dhabi Temperature Yesterday

Maximum temperature yesterday: 91 °F (at 3:00 PM)
Minimum temperature yesterday: 77 °F (at 6:00 AM)
Average temperature yesterday: 84 °F

High & Low Weather Summary for the Past Weeks

High100 °F (Oct 11, 1:00 PM)89% (Oct 9, 6:00 AM)29.92 "Hg (Oct 9, 6:00 AM)
Low77 °F (Oct 12, 6:00 AM)15% (Oct 11, 1:00 PM)29.74 "Hg (Oct 7, 2:00 AM)
Average87 °F62%29.83 "Hg
* Reported Oct 7 2:00 AM — Oct 22 2:00 AM, Abu Dhabi, Weather by CustomWeather, © 2016

Note: Actual official high and low records may vary slightly from our data, if they occured in-between our weather recording intervals... More about our weather records


Abu Dhabi Weather History for the Previous 24 Hours

Scroll right to see more
Time TempWeatherWind HumidityBarometerVisibility
2:00 AM
Sat, Oct 22
82 °FClear.1 mph74%29.83 "Hg5 mi
1:00 AM82 °FClear.1 mph74%29.83 "Hg5 mi
12:00 AM84 °FClear.3 mph70%29.83 "Hg5 mi
11:00 PM
Fri, Oct 21
84 °FClear.2 mph70%29.83 "Hg5 mi
10:00 PM84 °FClear.3 mph70%29.83 "Hg5 mi
9:00 PM86 °FClear.6 mph66%29.83 "Hg4 mi
8:00 PM86 °FClear.8 mph66%29.83 "Hg4 mi
7:00 PM88 °FClear.13 mph55%29.80 "Hg4 mi
6:00 PM88 °FClear.9 mph59%29.80 "Hg4 mi
5:00 PM90 °FPassing clouds.9 mph55%29.77 "Hg5 mi
4:00 PM90 °FPassing clouds.9 mph55%29.77 "Hg5 mi
3:00 PM91 °FPassing clouds.8 mph49%29.77 "Hg5 mi
2:00 PM90 °FScattered clouds.9 mph55%29.80 "Hg5 mi
1:00 PM90 °FScattered clouds.10 mph55%29.83 "Hg5 mi
12:00 PM90 °FScattered clouds.8 mph55%29.83 "Hg6 mi
11:00 AM88 °FScattered clouds.6 mph62%29.86 "Hg6 mi
10:00 AM82 °FPassing clouds.7 mph74%29.89 "Hg5 mi
9:00 AM81 °FPassing clouds.6 mph74%29.86 "Hg5 mi
8:00 AM79 °FPassing clouds.6 mph74%29.86 "Hg5 mi
7:00 AM77 °FPassing clouds.5 mph79%29.83 "Hg4 mi
6:00 AM77 °FClear.3 mph74%29.80 "Hg4 mi
5:00 AM79 °FClear.5 mph79%29.80 "Hg4 mi
4:00 AM79 °FClear.5 mph84%29.80 "Hg4 mi
3:00 AM82 °FPassing clouds.3 mph74%29.80 "HgN/A
Weather by CustomWeather, © 2016

See weather overviewHow to use our weather pages